DW4563 Weather Reports


Display with metric or nautical units.
time (UTC)temp
F
wind
direction
speed
MPH
gust
MPH
rain 1hr
in
rain 24hr
in
rain mn
in
humidity
%
barometer
mb
20260506044303 47 221 2.0 3.0 0.00 0.00 0.00 87 1008.4
20260506043803 47 46 1.0 3.0 0.00 0.00 0.00 87 1008.4
20260506041803 47 136 1.0 3.0 0.00 0.00 0.00 87 1008.4
20260506041303 47 184 1.0 3.0 0.00 0.00 0.00 87 1008.4
20260506040804 47 109 1.0 3.0 0.00 0.00 0.00 87 1008.4
20260506040303 47 256 1.0 2.0 0.00 0.00 0.00 86 1008.4
20260506034803 47 107 1.0 3.0 0.00 0.00 0.00 86 1008.4
20260506033803 47 262 1.0 3.0 0.00 0.00 0.00 86 1008.4
20260506030303 48 359 1.0 3.0 0.00 0.00 0.00 85 1008.7
20260506024804 48 352 1.0 3.0 0.00 0.00 0.00 84 1008.7
20260506024303 48 330 1.0 3.0 0.00 0.00 0.00 84 1008.8
20260506021804 49 57 1.0 3.0 0.00 0.00 0.00 84 1008.8
20260506014304 49 180 1.0 3.0 0.00 0.00 0.00 83 1009.0
20260506013804 49 357 1.0 3.0 0.00 0.00 0.00 83 1009.0
20260506010803 50 88 1.0 5.0 0.00 0.00 0.00 82 1009.2
20260506010304 50 59 2.0 5.0 0.00 0.00 0.00 82 1009.2
20260506004804 50 65 1.0 3.0 0.00 0.00 0.00 82 1009.3
20260506004303 50 85 1.0 3.0 0.00 0.00 0.00 82 1009.3
20260506003804 50 107 1.0 3.0 0.00 0.00 0.00 82 1009.4
20260506003304 50 68 1.0 3.0 0.00 0.00 0.00 82 1009.5
20260506001803 50 82 2.0 3.0 0.00 0.00 0.00 81 1009.7
20260506001303 50 87 1.0 3.0 0.00 0.00 0.00 81 1009.7
20260506000803 50 168 2.0 3.0 0.00 0.00 0.00 81 1009.8
20260505233804 50 85 2.0 10.0 0.00 0.00 0.00 81 1009.9
20260505233304 50 72 3.0 10.0 0.00 0.00 0.00 81 1009.8
20260505230804 50 112 2.0 8.0 0.00 0.00 0.00 81 1009.9
20260505224803 50 110 2.0 6.0 0.00 0.00 0.00 81 1010.1
20260505224303 50 92 2.0 7.0 0.00 0.00 0.00 80 1010.1
20260505223304 50 59 2.0 7.0 0.00 0.00 0.00 80 1010.2
20260505221804 50 66 2.0 6.0 0.00 0.00 0.00 80 1010.3
20260505221303 50 180 2.0 3.0 0.00 0.00 0.00 80 1010.3
20260505220810 50 71 2.0 5.0 0.00 0.00 0.00 79 1010.4
20260505220304 50 77 2.0 5.0 0.00 0.00 0.00 80 1010.4
20260505214303 50 179 2.0 5.0 0.00 0.00 0.00 79 1010.5
20260505213304 50 143 3.0 6.0 0.00 0.00 0.00 79 1010.6
20260505211304 50 76 1.0 5.0 0.00 0.00 0.00 80 1010.6
20260505204804 50 259 1.0 5.0 0.00 0.00 0.00 80 1010.7
20260505204303 50 63 2.0 12.0 0.00 0.00 0.00 80 1010.8
20260505203804 50 117 3.0 12.0 0.00 0.00 0.00 80 1010.8
20260505194304 51 172 3.0 12.0 0.00 0.00 0.00 80 1010.7
20260505191303 51 203 3.0 9.0 0.00 0.00 0.00 80 1010.6
20260505190803 51 87 3.0 9.0 0.00 0.00 0.00 80 1010.5
20260505190303 51 178 3.0 9.0 0.00 0.00 0.00 80 1010.5
20260505184306 51 91 2.0 7.0 0.00 0.00 0.00 79 1010.4
20260505181811 51 236 3.0 9.0 0.00 0.00 0.00 79 1010.3
20260505180303 51 85 5.0 9.0 0.00 0.00 0.00 79 1010.4
20260505173305 52 67 5.0 9.0 0.00 0.00 0.00 78 1010.5
20260505171804 52 59 4.0 8.0 0.00 0.00 0.00 78 1010.5
20260505171305 52 101 3.0 9.0 0.00 0.00 0.00 78 1010.5
20260505170803 52 98 3.0 12.0 0.00 0.00 0.00 78 1010.6
20260505164303 53 105 2.0 12.0 0.00 0.00 0.00 77 1010.6
20260505163304 53 105 2.0 12.0 0.00 0.00 0.00 76 1010.6
20260505161304 53 87 2.0 6.0 0.00 0.00 0.00 76 1010.6
20260505160804 53 87 3.0 7.0 0.00 0.00 0.00 76 1010.6
20260505160303 53 184 1.0 9.0 0.00 0.00 0.00 77 1010.7
20260505140304 53 69 1.0 7.0 0.00 0.00 0.00 77 1011.2
20260505130303 53 174 2.0 7.0 0.00 0.00 0.00 77 1011.5
20260505124303 53 78 2.0 5.0 0.00 0.00 0.00 77 1011.6
20260505123315 53 152 2.0 6.0 0.00 0.00 0.00 77 1011.6
20260505121304 53 135 2.0 7.0 0.00 0.00 0.00 76 1011.6
20260505120804 52 104 2.0 9.0 0.00 0.00 0.00 77 1011.6
20260505120303 52 69 3.0 9.0 0.00 0.00 0.00 77 1011.6
20260505114804 52 69 3.0 12.0 0.00 0.00 0.00 76 1011.7
20260505114303 52 78 3.0 12.0 0.00 0.00 0.00 76 1011.7
20260505113803 52 48 3.0 10.0 0.00 0.00 0.00 75 1011.8
20260505111804 53 79 1.0 3.0 0.00 0.00 0.00 76 1011.8
20260505111304 53 56 2.0 7.0 0.00 0.00 0.00 75 1011.8
20260505110803 52 96 2.0 7.0 0.00 0.00 0.00 76 1011.8
20260505110304 52 73 2.0 6.0 0.00 0.00 0.00 77 1011.8
20260505100803 52 130 3.0 12.0 0.00 0.01 0.00 75 1011.9
20260505094303 52 66 3.0 10.0 0.00 0.01 0.00 72 1012.0
20260505093803 54 72 3.0 10.0 0.00 0.01 0.00 71 1012.0
20260505093304 53 65 3.0 13.0 0.00 0.01 0.00 71 1012.0
20260505090304 52 177 3.0 6.0 0.00 0.01 0.00 75 1012.2
20260505084803 52 141 2.0 8.0 0.00 0.01 0.00 76 1012.3
20260505083804 51 170 1.0 3.0 0.00 0.01 0.00 79 1012.4
20260505083303 51 86 2.0 3.0 0.00 0.01 0.00 77 1012.5
20260505080804 50 86 2.0 7.0 0.00 0.01 0.00 81 1012.7
20260505074304 50 60 4.0 8.0 0.00 0.01 0.00 81 1012.6
20260505073804 50 94 3.0 9.0 0.00 0.01 0.00 81 1012.6
20260505073304 49 57 4.0 12.0 0.00 0.01 0.00 80 1012.6
20260505071803 49 51 3.0 10.0 0.00 0.01 0.00 82 1012.5
20260505071304 49 98 4.0 7.0 0.00 0.01 0.00 82 1012.5
20260505070804 48 60 3.0 8.0 0.00 0.01 0.00 84 1012.5
20260505070303 48 71 3.0 8.0 0.00 0.01 0.00 84 1012.5
20260505064804 48 49 3.0 7.0 0.00 0.01 0.00 84 1012.6
20260505064303 48 78 3.0 9.0 0.00 0.01 0.00 84 1012.6
20260505061804 48 72 2.0 6.0 0.00 0.01 0.00 85 1012.7
20260505054304 48 31 2.0 5.0 0.00 0.01 0.00 85 1012.6
20260505053803 48 78 2.0 5.0 0.00 0.01 0.00 85 1012.6
20260505051803 48 41 2.0 3.0 0.00 0.01 0.00 86 1012.6
20260505050803 48 67 1.0 3.0 0.00 0.01 0.00 86 1012.5
20260505050303 48 69 1.0 3.0 0.00 0.01 0.00 85 1012.5